Flag for U.S.A. Weather past 2 weeks in Seattle, Washington, U.S.A.

Now
87 °F

Sunny.


Feels Like: 84 °F
Forecast: 63 / 84 °F
Wind: 8 mph from Northwest

Location: Seattle Boeing Field

Current Time: Jul 29, 2015 at 7:11:27 PM

Latest Report: Jul 29, 2015 at 6:53 PM


Visibility: 10 mi

Pressure: 30.06 "Hg

Humidity: 27%

Dew point: 49 °F

Location of SeattleLocation

Historic Weather in Seattle — Graph

°F

Seattle temperature yesterday

Maximum temperature yesterday: 82 °F (at 5:53 PM)
Minimum temperature yesterday: 61 °F (at 2:53 AM)
Average temperature yesterday: 71 °F

Past Weeks' High & Low Weather Summary

 TemperatureHumidityPressure
High97 °F (Jul 19, 3:53 PM)85% (Jul 25, 12:53 AM)30.28 "Hg (Jul 25, 12:53 AM)
Low56 °F (Jul 27, 5:53 AM)17% (Jul 18, 4:53 PM)29.85 "Hg (Jul 22, 5:53 PM)
Average71 °F53%30.05 "Hg
* Reported Jul 14 5:53 PM — Jul 29 5:53 PM, Seattle, Weather by CustomWeather, © 2015

Note: Actual official high and low records may vary slightly from our data, if they occured in-between our weather recording intervals... More about our weather records

Advertising

Seattle weather history for previous 24 hours

 ConditionsComfort  
Time TempWeatherWind HumidityBarometerVisibility
5:53 PM
Wed, Jul 29
88 °FSunny.10 mph26%30.07 "Hg10 mi
4:53 PM88 °FSunny.8 mph27%30.09 "Hg10 mi
3:53 PM88 °FSunny.10 mph28%30.10 "Hg10 mi
2:53 PM88 °FSunny.8 mph29%30.12 "Hg10 mi
1:53 PM85 °FSunny.6 mph31%30.14 "Hg10 mi
12:53 PM81 °FSunny.8 mph34%30.15 "Hg9 mi
11:53 AM79 °FSunny.8 mph36%30.16 "Hg10 mi
10:53 AM76 °FSunny.8 mph40%30.18 "Hg10 mi
9:53 AM74 °FSunny.7 mph46%30.18 "Hg10 mi
8:53 AM71 °FPassing clouds.No wind53%30.19 "Hg10 mi
7:53 AM67 °FPassing clouds.No wind66%30.19 "Hg10 mi
6:53 AM64 °FPassing clouds.No wind70%30.19 "Hg10 mi
5:53 AM62 °FClear.No wind75%30.18 "Hg10 mi
4:53 AM63 °FClear.3 mph73%30.18 "Hg10 mi
3:53 AM65 °FClear.No wind66%30.18 "Hg10 mi
2:53 AM66 °FClear.No wind63%30.18 "Hg10 mi
1:53 AM67 °FClear.No wind61%30.19 "Hg10 mi
12:53 AM66 °FClear.No wind63%30.20 "Hg10 mi
11:53 PM
Tue, Jul 28
67 °FClear.5 mph59%30.19 "Hg10 mi
10:53 PM69 °FClear.No wind53%30.19 "Hg10 mi
9:53 PM70 °FClear.5 mph51%30.19 "Hg10 mi
8:53 PM74 °FSunny.5 mph43%30.17 "Hg10 mi
7:53 PM79 °FSunny.6 mph34%30.17 "Hg10 mi
Weather by CustomWeather, © 2015

See weather overviewHow to use our weather pages